Terminal Aerodrome Forecast
Issued by NWS

Home | Current Version | Previous Version | Text Only | Print | Product List | Glossary On
Versions: 1 2 3 4 5 6 7 8 9 10 11 12 13 14 15 16 17
000
FTUS42 KILM 010500
TAFCRE
TAF
KCRE 010536Z 0106/0206 10010G18KT P6SM VCTS SCT020CB BKN060 OVC100
      TEMPO 0106/0109 VRB20KT 3SM SHRA BKN020
     FM011000 07008KT 6SM -SHRA SCT025 BKN060
     FM011700 11008KT P6SM VCTS SCT025 BKN040CB=

USA.gov is the U.S. government's official web portal to all federal, state and local government web resources and services.